sat.trackr.live / text

‹ back to catalog

STARLINK-36905

NORAD 68176 · 2026-050K

PAYLOAD ACTIVE UNKNOWN

§ Identity

Operator
Country
US
Launch date
2026-03-14
Launch site
AFETR
Launch vehicle
Mass (kg)
RCS (m²)

Purposes: comms

External: N2YO · Heavens-Above · Gunter

§ Orbital elements

Epoch: 2026-05-24T17:53:22.007040Z

Period
93.85 min
Inclination
53.1609°
Eccentricity
0.0001047
Mean motion
15.34399837 rev/d
Perigee alt
462.0 km
Apogee alt
463.4 km
Semi-major
6,840.8 km
B*
6.1613e-4
RAAN
273.0479°
Arg perigee
79.3784°
Mean anomaly
280.7337°
Rev number
1,233

§ Raw data

STARLINK-369051 68176U 26050K   26144.74539360  .00020498  00000+0  61613-3 0  99972 68176  53.1609 273.0479 0001047  79.3784 280.7337 15.34399837 12337

JSON: /api/v1/satellites/68176 · /tle

For live sub-satellite position, see the globe view (requires WebGL).

§ Visibility from observer

Set your observer location to see the next 7 days of passes ≥ 10°. The values pass through the URL so the page stays shareable.

No JS? Fill the form by hand. The geolocation button needs JavaScript.